Find Starlink 32789

NORAD ID: 62529 Int'l Des: 2025-004 Owner: SPXS Country: US Constellation: starlink operational
LEOCIRCULAR

Live Position

Loading 3D Globe...

About Starlink 32789

Description loading...

Upcoming Passes

Passes for default location (London). Set your location on the main map for personalized predictions.

Altitude History

Loading altitude history...

Two-Line Element Set

1 62529U 25004U 26124.44020788 .00022452 00000-0 82253-3 0 9991
2 62529 43.0021 265.1309 0001520 264.5088 95.5591 15.27595539 74986
Epoch: May 4, 2026 • Age: 25 hours

Current Status

Altitude 493.0 km
Velocity 7.62 km/s
Sub-Earth Point -37.68°S, 103.99°E
Launch Date Jan 8, 2025
Age 1.3 years
Type internet

Technical Details

Classification Payload
Mass 730.00 kg
Dry Mass 700.00 kg
Total Mass 730.00 kg
Length 0.30 m
Diameter 4.10 m
Span 29.00 m
Shape Box + pan
Manufacturer SPXS
Bus Type Starlink V2M
Phase Status In Orbit
Owner/State SPXS/US

Most Searched